Tianhui-5 2-02

operational
NORAD ID: 60212 Int'l Des: 2024-126 Owner: GCDX Country: CN
LEOCIRCULARRETROGRADESSO

About Tianhui-5 2-02

Description loading...

Live Position

Loading 3D Globe...

Upcoming Passes

Altitude History

Altitude vs Time

uPlot chart will show altitude changes over time

Two-Line Element Set

1 60212U 24126B 26062.56133108 .00000662 00000-0 78889-4 0 9997
2 60212 97.8213 71.6261 0002086 95.5422 264.6033 14.87576418 90193
Epoch: Mar 3, 2026 • Age: 29 hours

Current Status

Altitude 618.4 km
Velocity 7.55 km/s
Sub-Earth Point -32.04°S, 166.87°W
Launch Date Jul 4, 2024
Age 1.6 years
Type other

Technical Details

Classification Payload
Mass 1000.00 kg
Dry Mass 1000.00 kg
Total Mass 1000.00 kg
Length 2.00 m
Diameter 2.00 m
Span 14.00 m
Shape Box + 2 Pan
Manufacturer DFHZ
Bus Type CAST-2000
Phase Status In Orbit
Owner/State GCDX/CN

Large Constellations

Loading constellations...